[[{"header":{"parameterUnit":"m.s-1","parameterCategory":1,"la1":30.2991,"la2":30.254,"lo1":-89.0895,"lo2":-89.0444,"dy":0.0017,"dx":0.0017,"nx":28,"ny":28,"refTime":"2025-09-19T09:00:00:Z","depth":0,"parameterNumber":2,"parameterNumberName":"U-component_of_WINDS"},"data":[0,0,0,0,0,0,0,0,0,0,0,0,0,0,0,0,0,0,0,0,0,0,0,0,0,0,0,0,0,0,0,0,0,0,0,0,0,0,0,0,0,0,0,0,0,0,0,0,0,0,0,0,0,0,0,0,0,0,0.8749,0.875,0,0.8867,0.8869,0.887,0.8912,0.8911,0.8911,0.891,0.9034,0.9038,0.9041,0,0,0,0,0,0,0,0,0,0,0,0,0,0.8558,0.8561,0.8748,0.875,0.8751,0.8867,0.8869,0.887,0.8912,0.8911,0.8911,0.891,0.9033,0.9037,0.9042,0,0,0,0,0,0,0,0,0,0,0,0,0,0.8655,0.8562,0.8748,0.8786,0.8791,0.8867,0.8869,0.8871,0.8912,0.8911,0.8911,0.891,0.9031,0.9037,0.9042,0.909,0,0,0.9059,0.9062,0,0,0,0,0,0,0,0,0.8649,0.8662,0.8779,0.8784,0.8789,0.8874,0.8847,0.8944,0.8912,0.8866,0.891,0.891,0.8981,0.8991,0.9015,0.9096,0.9101,0.906,0.9063,0.9065,0.9067,0,0,0,0,0,0,0,0.8643,0.8657,0.8796,0.8781,0.8787,0.8797,0.881,0.8865,0.8926,0.887,0.8873,0.8887,0.8984,0.9009,0.9018,0.9103,0.9059,0.9064,0.9068,0.907,0.9226,0.9227,0,0,0,0,0,0,0.8629,0.8651,0.8792,0.8799,0.8716,0.8801,0.8816,0.8847,0.8926,0.8937,0.8887,0.8888,0.9,0.9011,0.9022,0.9082,0.9065,0.9071,0.9074,0.9226,0.9226,0.9227,0,0,0,0,0,0,0.8625,0.8642,0.8787,0.8726,0.8745,0.8805,0.884,0.885,0.8875,0.8938,0.895,0.8902,0.9,0.9015,0.9072,0.9087,0.9073,0.9078,0.9225,0.9226,0.9227,0.9202,0,0,0,0,0,0,0.862,0.864,0.8659,0.8726,0.8748,0.8834,0.8841,0.8853,0.8885,0.8887,0.8955,0.8966,0.9001,0.9064,0.9078,0.9094,0.9082,0.9223,0.9225,0.9227,0.9202,0.9203,0.9203,0,0,0,0,0,0.8613,0.8648,0.8659,0.8676,0.8773,0.8835,0.8848,0.8887,0.8886,0.8905,0.8945,0.8964,0.9083,0.9069,0.9085,0.9104,0.9223,0.9225,0.9226,0.9202,0.9202,0.9203,0,0,0,0,0,0,0.8582,0.8657,0.8671,0.8729,0.8775,0.8842,0.8868,0.8886,0.8934,0.8935,0.8981,0.8996,0.905,0.9083,0.9066,0.9153,0.9154,0.9159,0.913,0.9131,0.9131,0.9122,0.9087,0,0,0,0,0,0.8581,0.8625,0.8689,0.8734,0.8757,0.8808,0.8837,0.8862,0.8912,0.8932,0.8977,0.9024,0.9073,0.9104,0.9152,0.9207,0.9222,0.9227,0.9228,0.9228,0.9232,0.9262,0.9265,0.9233,0.9233,0.9233,0,0,0.8582,0.8628,0.8654,0.8729,0.8768,0.8812,0.8824,0.8871,0.8904,0.8939,0.8996,0.903,0.9086,0.9142,0.9169,0.9172,0.9244,0.923,0.923,0.9234,0.9264,0.9267,0.9269,0.9235,0.9234,0.9234,0,0,0.8605,0.8645,0.8686,0.8724,0.8782,0.8816,0.8825,0.8889,0.8913,0.897,0.8996,0.9036,0.9119,0.9158,0.9188,0.9223,0.9241,0.9237,0.924,0.9268,0.9271,0.9273,0.9285,0.9288,0.9241,0.9241,0.9241,0,0.8598,0.8665,0.8705,0.875,0.8781,0.8814,0.8856,0.8891,0.8962,0.8983,0.8984,0.9086,0.9127,0.9192,0.92,0.9224,0.9236,0.923,0.9267,0.927,0.9273,0.9284,0.9289,0.924,0.924,0.924,0.924,0,0.8653,0.87,0.8726,0.8792,0.8827,0.887,0.8916,0.8946,0.8968,0.9001,0.9058,0.9107,0.9165,0.9182,0.9205,0.925,0.9249,0.9258,0.926,0.9274,0.9286,0.929,0.9238,0.9239,0.9239,0.9239,0,0,0.8661,0.8747,0.8756,0.8786,0.8851,0.8888,0.8932,0.8987,0.9012,0.9059,0.9096,0.9164,0.9172,0.9206,0.9233,0.9259,0.9281,0.9265,0.9267,0.9265,0.9332,0.9325,0.9329,0.9294,0.9295,0.9296,0.9327,0,0.8692,0.8772,0.8808,0.8871,0.8913,0.8944,0.8982,0.9026,0.9057,0.9098,0.9133,0.918,0.9188,0.9208,0.9234,0.9273,0.9295,0.9271,0.9329,0.933,0.9313,0.9336,0.9329,0.9356,0.9332,0.9333,0.9334,0,0.8739,0.8785,0.8852,0.8911,0.893,0.8963,0.9016,0.9055,0.9104,0.9126,0.9163,0.9188,0.9235,0.9232,0.9297,0.9279,0.9305,0.9327,0.9329,0.9336,0.9333,0.9343,0.9366,0.937,0.9341,0.9341,0.934,0,0.8737,0.8816,0.8866,0.889,0.896,0.8983,0.9013,0.9062,0.9092,0.9138,0.9158,0.9209,0.9237,0.9276,0.9314,0.9309,0.9374,0.9376,0.9393,0.9392,0.9406,0.9404,0.9433,0.9422,0.9422,0.9422,0.9422,0,0.8768,0.8807,0.8865,0.8896,0.8941,0.8981,0.9024,0.9057,0.91,0.9137,0.9167,0.9201,0.9249,0.929,0.932,0.9368,0.938,0.9399,0.9406,0.9396,0.9393,0.9413,0.9412,0.9423,0.9423,0.9423,0.9423,0,0.8773,0.8814,0.887,0.8931,0.8947,0.8977,0.9029,0.906,0.9092,0.9138,0.9152,0.9203,0.9251,0.9293,0.9357,0.9378,0.9427,0.9436,0.941,0.9414,0.9428,0.9426,0.9471,0.9478,0.9462,0.9462,0.9462,0,0.879,0.882,0.8884,0.8911,0.894,0.8983,0.9014,0.9054,0.9085,0.9143,0.9166,0.9216,0.9259,0.9335,0.9378,0.9427,0.9437,0.945,0.9445,0.9433,0.9437,0.9434,0.9437,0.945,0.945,0.945,0.945,0,0.8814,0.8832,0.8875,0.8925,0.896,0.9001,0.9043,0.9063,0.9112,0.9144,0.9194,0.9226,0.9291,0.9341,0.9394,0.9425,0.9445,0.945,0.9457,0.9447,0.943,0.9438,0.9409,0.945,0.945,0.945,0.945,0.945,0.8826,0.8854,0.8903,0.8949,0.8984,0.9022,0.9054,0.9089,0.9131,0.9186,0.9208,0.9258,0.9306,0.9379,0.941,0.9449,0.9453,0.9462,0.9465,0.9466,0.9464,0.9423,0.9459,0.9459,0.9459,0.946,0.946,0,0.8851,0.8884,0.8926,0.8983,0.9019,0.9034,0.9081,0.911,0.9153,0.9196,0.9236,0.9292,0.934,0.9386,0.9436,0.9458,0.9469,0.947,0.9469,0.9475,0.9459,0.9448,0.9461,0.9461,0.9461,0.9461,0.9461,0.9461,0.8869,0.8917,0.8941,0.9006,0.9039,0.9088,0.9113,0.9148,0.9182,0.9243,0.9282,0.9311,0.9355,0.9407,0.9451,0.9464,0.948,0.9479,0.9494,0.9477,0.9477,0.9476,0.9466,0.9482,0.9482,0.9507,0.9507,0.9507]},{"header":{"parameterUnit":"m.s-1","parameterCategory":1,"la1":30.2991,"la2":30.254,"lo1":-89.0895,"lo2":-89.0444,"dy":0.0017,"dx":0.0017,"nx":28,"ny":28,"refTime":"2025-09-19T09:00:00:Z","depth":0,"parameterNumber":3,"parameterNumberName":"V-component_of_WINDS"},"data":[0,0,0,0,0,0,0,0,0,0,0,0,0,0,0,0,0,0,0,0,0,0,0,0,0,0,0,0,0,0,0,0,0,0,0,0,0,0,0,0,0,0,0,0,0,0,0,0,0,0,0,0,0,0,0,0,0,0,3.3699,3.3699,0,3.37,3.37,3.37,3.3711,3.3711,3.3711,3.3712,3.371,3.371,3.3709,0,0,0,0,0,0,0,0,0,0,0,0,0,3.3705,3.3705,3.3699,3.3699,3.3699,3.37,3.37,3.37,3.3711,3.3711,3.3711,3.3712,3.371,3.371,3.3709,0,0,0,0,0,0,0,0,0,0,0,0,0,3.3704,3.3705,3.3699,3.3705,3.3705,3.37,3.37,3.37,3.3711,3.3711,3.3712,3.3712,3.371,3.371,3.3709,3.3698,0,0,3.3708,3.3708,0,0,0,0,0,0,0,0,3.3704,3.3704,3.3704,3.3705,3.3705,3.3706,3.3701,3.3699,3.3711,3.3709,3.3712,3.3712,3.3708,3.3708,3.3707,3.3698,3.3698,3.3708,3.3708,3.3707,3.3707,0,0,0,0,0,0,0,3.3704,3.3704,3.3699,3.3704,3.3705,3.3707,3.3707,3.3701,3.3706,3.3709,3.371,3.371,3.3708,3.3707,3.3707,3.3698,3.3708,3.3708,3.3707,3.3707,3.3677,3.3676,0,0,0,0,0,0,3.3704,3.3704,3.3699,3.37,3.3706,3.3706,3.3706,3.3705,3.3706,3.3707,3.3709,3.371,3.3708,3.3708,3.3707,3.3692,3.3707,3.3707,3.3707,3.3677,3.3677,3.3676,0,0,0,0,0,0,3.3704,3.3703,3.3699,3.3702,3.3702,3.3706,3.3704,3.3705,3.3704,3.3706,3.3707,3.3707,3.3708,3.3708,3.37,3.3692,3.3707,3.3706,3.3678,3.3677,3.3677,3.3663,0,0,0,0,0,0,3.3704,3.3703,3.37,3.3702,3.3701,3.3693,3.3704,3.3705,3.3703,3.3704,3.3705,3.3705,3.3709,3.37,3.3699,3.3692,3.3706,3.3679,3.3678,3.3677,3.3664,3.3662,3.366,0,0,0,0,0,3.3704,3.3696,3.3699,3.3699,3.3697,3.3693,3.3692,3.3697,3.3703,3.3698,3.37,3.3705,3.3693,3.3699,3.3698,3.3691,3.3679,3.3678,3.3677,3.3665,3.3662,3.366,0,0,0,0,0,0,3.3692,3.3696,3.37,3.3692,3.3692,3.3694,3.3689,3.3694,3.3692,3.3693,3.3698,3.3698,3.3689,3.3689,3.3696,3.3679,3.3687,3.3686,3.3679,3.3676,3.3674,3.3673,3.3706,0,0,0,0,0,3.3689,3.3686,3.3689,3.3682,3.3681,3.3685,3.3684,3.3687,3.3687,3.3687,3.3688,3.3686,3.3682,3.3679,3.3676,3.3665,3.3664,3.3658,3.3656,3.3655,3.3653,3.3645,3.3642,3.3672,3.3672,3.3672,0,0,3.3681,3.3683,3.3681,3.3679,3.3679,3.3675,3.3685,3.368,3.3677,3.3686,3.3678,3.3679,3.3677,3.3667,3.3663,3.3667,3.3644,3.3653,3.3652,3.3651,3.3644,3.3641,3.3638,3.3672,3.3672,3.3672,0,0,3.3665,3.3667,3.366,3.366,3.366,3.3663,3.3661,3.3663,3.3664,3.3656,3.3662,3.3658,3.3651,3.3649,3.3648,3.363,3.3634,3.3629,3.3617,3.361,3.3607,3.3605,3.3597,3.3594,3.3627,3.3627,3.3627,0,3.3655,3.365,3.3656,3.3651,3.3649,3.3657,3.365,3.3649,3.3648,3.3646,3.3652,3.3642,3.3642,3.3631,3.3627,3.3626,3.3622,3.3628,3.3607,3.3605,3.3603,3.3596,3.3593,3.3627,3.3627,3.3627,3.3627,0,3.3637,3.3633,3.3628,3.3627,3.3625,3.3618,3.3622,3.3619,3.3623,3.3624,3.3616,3.3616,3.3612,3.361,3.3613,3.3598,3.3601,3.3607,3.3615,3.36,3.3592,3.359,3.3625,3.3626,3.3626,3.3626,0,0,3.3613,3.3616,3.3613,3.3612,3.3613,3.3609,3.3603,3.3599,3.3596,3.3594,3.3588,3.3581,3.3586,3.3584,3.3588,3.3581,3.3565,3.3587,3.3587,3.3582,3.3546,3.3541,3.3538,3.3568,3.3568,3.3567,3.3546,0,3.3597,3.3586,3.3591,3.3579,3.3575,3.3582,3.3576,3.3575,3.3576,3.3572,3.3573,3.3567,3.3575,3.3574,3.3568,3.3568,3.3557,3.357,3.356,3.356,3.3559,3.3534,3.3529,3.3508,3.3543,3.3543,3.3542,0,3.3576,3.3574,3.3562,3.3562,3.356,3.3555,3.3551,3.3547,3.3546,3.3547,3.3544,3.3548,3.354,3.355,3.3538,3.3546,3.3542,3.3542,3.3541,3.3539,3.3549,3.353,3.3502,3.3499,3.3538,3.3539,3.3539,0,3.3557,3.3552,3.3544,3.3543,3.3543,3.3539,3.3539,3.3538,3.3535,3.3531,3.3529,3.3525,3.3522,3.3518,3.352,3.3527,3.3507,3.3517,3.3506,3.3506,3.35,3.35,3.347,3.3501,3.3501,3.3501,3.3501,0,3.3538,3.3529,3.3535,3.353,3.352,3.3526,3.3516,3.3517,3.3515,3.3509,3.3516,3.3509,3.3514,3.3507,3.3509,3.3498,3.3497,3.3496,3.3496,3.3495,3.3495,3.3491,3.3492,3.35,3.35,3.35,3.35,0,3.3515,3.3519,3.351,3.3511,3.3511,3.3504,3.3504,3.3499,3.35,3.3492,3.3491,3.3493,3.3486,3.3488,3.348,3.3481,3.3466,3.3469,3.3467,3.3467,3.3455,3.3456,3.3421,3.3415,3.3451,3.345,3.345,0,3.3501,3.3495,3.3496,3.3493,3.3492,3.3487,3.3484,3.3488,3.3485,3.3482,3.3476,3.347,3.3465,3.3453,3.3452,3.3446,3.3448,3.3436,3.3447,3.3445,3.3445,3.3445,3.3443,3.3433,3.3433,3.3433,3.3432,0,3.3476,3.3478,3.3474,3.347,3.3467,3.3464,3.3461,3.3458,3.3462,3.3457,3.3451,3.3447,3.3439,3.3431,3.3425,3.3424,3.3428,3.3429,3.3426,3.3423,3.3421,3.342,3.3459,3.343,3.343,3.343,3.343,3.343,3.3457,3.3451,3.345,3.3445,3.3444,3.3441,3.3435,3.3436,3.3431,3.3425,3.3428,3.3419,3.3416,3.3408,3.3406,3.3398,3.3403,3.3398,3.3397,3.3395,3.3393,3.3424,3.3397,3.3397,3.3398,3.3398,3.3398,0,3.343,3.343,3.3425,3.3422,3.3417,3.3423,3.342,3.3415,3.3408,3.3405,3.34,3.3391,3.3384,3.3383,3.3376,3.3369,3.3371,3.3367,3.3367,3.3366,3.3391,3.3393,3.3366,3.3366,3.3366,3.3366,3.3366,3.3366,3.3416,3.3406,3.3408,3.3397,3.3396,3.3388,3.3386,3.3383,3.3381,3.337,3.3365,3.3365,3.3362,3.3354,3.3347,3.3347,3.3343,3.3338,3.3338,3.3361,3.3364,3.3367,3.337,3.3338,3.3338,3.3314,3.3314,3.3313]}]]